Regional Weather Roundup
Issued by NWS

Home | Current Version | Previous Version | Graphics & Text | Print | Product List | Glossary On
Versions: 1 2 3 4 5 6 7 8 9 10 11 12 13 14 15 16 17 18 19 20 21 22 23 24 25 26 27 28 29 30 31 32 33 34 35 36 37 38 39 40 41 42 43 44 45 46 47 48 49 50
000
ASUS43 KMPX 292210
RWRMN
WEATHER ROUNDUP FOR MINNESOTA
NATIONAL WEATHER SERVICE TWIN CITIES/CHANHASSEN MN
500 PM CDT SUN MAR 29 2015


NOTE: "FAIR" INDICATES FEW OR NO CLOUDS BELOW 12,000 FEET WITH NO
SIGNIFICANT WEATHER AND/OR OBSTRUCTIONS TO VISIBILITY. N/A MEANS
CURRENT SKY AND/OR WEATHER CONDITIONS ARE NOT AVAILABLE.

MNZ060>063-068>070-292300-
   Twin Cities Metro

CITY           SKY/WX    TMP DP  RH WIND       PRES   REMARKS
TWIN CITIES    MOSUNNY   52  26  36 NW33G43   29.79R
ST PAUL        MOSUNNY   53  29  39 W29G43    29.79R
CRYSTAL        MOSUNNY   54  26  34 NW28G38   29.80R
BLAINE         PTSUNNY   55  28  35 NW26G41   29.78R
LAKEVILLE      SUNNY     48  30  49 W28G39    29.79R
EDEN PRAIRIE   MOSUNNY   53  29  39 NW21G36   29.80R
SOUTH ST PAUL  MOSUNNY   53  28  37 NW28G36   29.78R
LAKE ELMO      FAIR      52  32  46 NW21G33   29.78R
$$
MNZ001>005-007-008-013>017-022>024-027-028-292300-
   Northwest Minnesota

CITY           SKY/WX    TMP DP  RH WIND       PRES   REMARKS
BEMIDJI        MOSUNNY   47  27  47 NW17G23   29.81R
HALLOCK        SUNNY     52  30  43 NW21G28   29.84F
ROSEAU         MOSUNNY   48  30  49 NW21G26   29.81R
WARROAD        MOSUNNY   48  30  49 NW20G32   29.80R
THIEF RVR FALL MOSUNNY   48  30  49 NW23G31   29.86R
CROOKSTON      MOSUNNY   52  30  43 NW18G24   29.88R
FOSSTON        MOSUNNY   48  28  46 NW25G37   29.86R
DETROIT LAKES  SUNNY     50  28  43 N31G39    29.88R
MOORHEAD       PTSUNNY   55  21  26 NW22G32   29.90R
PARK RAPIDS    PTSUNNY   52  28  39 NW24G37   29.82R
MAHNOMEN       FAIR      49  29  47 NW28G37   29.87R
$$
MNZ006-009>011-018-025>026-292300-
   North Central Minnesota

CITY           SKY/WX    TMP DP  RH WIND       PRES   REMARKS
BAUDETTE       MOSUNNY   46  28  49 NW25      29.76R
FLAG ISLAND    MOSUNNY   43  28  56 NW21      29.76R
INTL FALLS     PTSUNNY   44  28  53 NW22G29   29.72R
WASKISH        MOSUNNY   46  28  49 NW16G28   29.78R
BIG FORK       MOSUNNY   46  25  42 NW14G25   29.73R
LONGVILLE      PTSUNNY   46  28  49 NW14G28   29.80R
GRAND RAPIDS   MOSUNNY   45  27  49 NW29G35   29.74R
ORR            PTSUNNY   43  27  52 NW14G24   29.67R
COOK           CLOUDY    43  30  61 W21       29.69R
WALKER         MOCLDY    47  27  44 NW17G32   29.81R
$$
MNZ012-019>021-037-292300-
   Northeast Minnesota

CITY           SKY/WX    TMP DP  RH WIND       PRES   REMARKS
DULUTH         PTSUNNY   42  30  62 NW20G39   29.67R
ELY            LGT RAIN  37  32  81 NW13G23   29.64R
HIBBING        PTSUNNY   44  29  55 NW25G36   29.70R
EVELETH        PTSUNNY   39  32  75 NW14G25   29.69R
DULUTH HARBOR  PTSUNNY   45  34  65 NW17G25   29.71R
TWO HARBORS    MOSUNNY   46  36  66 NW12G25   29.63R
SILVER BAY     SUNNY     43  34  70 NW14G25   29.59R
GRAND MARAIS     N/A     43  31  62 NW18G35   29.51R
G MARAIS ARPRT MOSUNNY   37  28  70 NW16G28   29.50R
$$
MNZ029>031-032-039>041-046>048-054>057-064-292300-
   West Central Minnesota

CITY           SKY/WX    TMP DP  RH WIND       PRES   REMARKS
FERGUS FALLS   MOSUNNY   54  23  30 NW28G36   29.91S
WHEATON        PTSUNNY   54  27  35 NW24G33   29.94R
MORRIS         SUNNY     55  27  33 NW29G37   29.90R
ALEXANDRIA     MOSUNNY   50  27  40 NW29G41   29.88R
ELBOW LAKE     FAIR      51  28  41 NW23G32   29.89S
WADENA         MOSUNNY   50  28  43 NW26G35   29.85R
GLENWOOD       MOSUNNY   52  28  40 NW25G43   29.89R
APPLETON       SUNNY     57  25  28 NW26G35   29.93R
BENSON         MOSUNNY   55  25  30 N24G33    29.91R
ORTONVILLE     MOSUNNY   55  25  30 NW22G30   29.94R
MADISON        SUNNY     57  23  26 NW28G35   29.94R
WILLMAR        FAIR      54  30  40 NW28G37   29.91R
$$
MNZ033>034-036-042>043-049>051-058-059-292300-
   Central Minnesota

CITY           SKY/WX    TMP DP  RH WIND       PRES   REMARKS
ST CLOUD       MOSUNNY   51  28  41 NW29G40   29.81R
SAUK CENTRE    FAIR      50  29  44 NW29G37   29.86R
PAYNESVILLE    MOSUNNY   48  30  49 W24G33    29.87R
AITKIN         MOSUNNY   52  27  37 NW16G31   29.76R
PINE RIVER     CLOUDY    46  28  49 NW17G29   29.84R
BRAINERD       MOSUNNY   50  26  39 NW31G39   29.81R
STAPLES        PTSUNNY   48  27  43 NW28G37   29.84R
LONG PRAIRIE   FAIR      48  30  49 NW18G31   29.85R
LITTLE FALLS   MOSUNNY   50  27  40 NW22G33   29.83R
LITCHFIELD     PTSUNNY   54  30  40 NW14G32   29.87R
BUFFALO        MOSUNNY   52  27  37 NW21G28   29.84R
MAPLE LAKE     MOSUNNY   52  32  46 NW18G31   29.84R
$$
MNZ037-044-045-052-053-292300-
   East Central Minnesota

CITY           SKY/WX    TMP DP  RH WIND       PRES   REMARKS
PRINCETON      MOSUNNY   54  28  37 W24G32    29.79R
MORA           MOSUNNY   50  28  43 NW25G31   29.78R
CAMBRIDGE      MOSUNNY   54  34  47 W23G38    29.75R
RUSH CITY      SUNNY     51  28  42 NW21G30   29.76R
MOOSE LAKE     MOSUNNY   46  28  49 NW22G33   29.72R
HINCKLEY       FAIR      50  30  46 NW15G26   29.74R
CLOQUET        MOSUNNY   45  27  49 NW22G35   29.70R
MCGREGOR       MOSUNNY   46  28  49 NW20G35   29.75R
$$
MNZ071>073-080-081-089-090-097-098-292300-
   Southwest Minnesota

CITY           SKY/WX    TMP DP  RH WIND       PRES   REMARKS
MONTEVIDEO     MOSUNNY   57  28  33 N23G36    29.92R
GRANITE FALLS  SUNNY     56  29  35 NW30G37   29.94R
CANBY          SUNNY     56  23  27 NW25G36   29.96R
MARSHALL       MOSUNNY   57  25  28 NW31G41   29.94R
REDWOOD FALLS  MOSUNNY   54  29  38 NW25G39   29.90R
OLIVIA         SUNNY     52  32  46 NW29G39   29.89R
PIPESTONE      SUNNY     55  19  24 NW26G39   29.97R
WINDOM         SUNNY     57  21  24 NW30G41   29.91S
WORTHINGTON    MOSUNNY  N/A N/A N/A NW30G38   29.95R
JACKSON        MOSUNNY   57  21  24 NW33G40   29.92R
TRACY          SUNNY     57  26  29 NW26G37   29.94R
SLAYTON        SUNNY     56  16  21 NW32G41   29.95R
$$
MNZ065>067-074>077-082>085-091>093-292300-
   South Central Minnesota

CITY           SKY/WX    TMP DP  RH WIND       PRES   REMARKS
MANKATO        PTSUNNY  N/A N/A N/A NW30G43   29.86R
NEW ULM        MOSUNNY   54  28  37 NW30G38   29.87R
ST JAMES       SUNNY     57  28  33 NW24G39   29.91R
FAIRMONT       SUNNY     57  27  30 NW32G41   29.89R
GLENCOE        MOSUNNY   52  35  51 NW30G37   29.85R
FARIBAULT      SUNNY     52  32  46 NW30G40   29.83R
OWATONNA       MOSUNNY   52  34  50 NW24G40   29.83R
WASECA         MOSUNNY   52  34  50 NW32G44   29.86R
ALBERT LEA     SUNNY     55  32  41 NW17G33   29.84R
$$
MNZ078>079-086>088-094>096-292300-
   Southeast Minnesota

CITY           SKY/WX    TMP DP  RH WIND       PRES   REMARKS
ROCHESTER      SUNNY     47  34  60 NW23G36   29.78R
RED WING       MOSUNNY   54  28  37 NW20G30   29.75R
STANTON        SUNNY     52  33  46 NW29G40   29.79R
DODGE CENTER   SUNNY     48  34  57 NW25G38   29.80R
WINONA         CLOUDY    52  36  54 NW17G26   29.74R
AUSTIN         SUNNY     52  32  46 NW30G41   29.81R
PRESTON        SUNNY     46  32  58 NW31G38   29.79R
$$
ABBREVIATIONS USED IN REMARKS
   TC - TEMPERATURES IN CELSIUS
  WCI - WIND CHILL INDEX
   HX - HEAT INDEX
  VSB - VISIBILITY
$$



USA.gov is the U.S. government's official web portal to all federal, state and local government web resources and services.